GW4109 Weather Reports


time (UTC)temp
F
wind
direction
speed
knots
gust
knots
rain 1hr
in
rain 24hr
in
rain mn
in
humidity
%
barometer
mb
20260903065309 77 116 0.0 1.7 0.00 0.00 0.00 19 1015.8
20260903064809 76 217 1.7 3.5 0.00 0.00 0.00 20 1015.8
20260903064304 77 241 0.0 0.9 0.00 0.00 0.00 20 1015.9
20260903063800 77 129 0.9 3.5 0.00 0.00 0.00 20 1015.9
20260903063255 77 95 0.9 3.5 0.00 0.00 0.00 21 1015.9
20260903062751 77 112 2.6 5.2 0.00 0.00 0.00 21 1015.8
20260903062250 77 82 2.6 3.5 0.00 0.00 0.00 22 1016.0
20260903061747 78 97 2.6 3.5 0.00 0.00 0.00 21 1015.9
20260903061245 78 132 0.9 2.6 0.00 0.00 0.00 21 1015.8
20260903060742 78 60 1.7 2.6 0.00 0.00 0.00 21 1015.8
20260903060241 79 65 1.7 3.5 0.00 0.00 0.00 21 1016.0
20260903055739 78 75 0.0 1.7 0.00 0.00 0.00 21 1015.9
20260903055237 78 52 0.9 0.9 0.00 0.00 0.00 21 1016.1
20260903054733 80 10 1.7 1.7 0.00 0.00 0.00 20 1016.0
20260903054228 81 65 1.7 2.6 0.00 0.00 0.00 20 1016.0
20260903053725 83 26 1.7 5.2 0.00 0.00 0.00 18 1016.0
20260903053224 83 298 5.2 10.4 0.00 0.00 0.00 14 1016.2
20260903052720 83 290 4.3 8.7 0.00 0.00 0.00 16 1016.2
20260903052215 83 317 5.2 12.2 0.00 0.00 0.00 16 1016.1
20260903051710 83 281 4.3 7.0 0.00 0.00 0.00 17 1016.1
20260903051206 83 288 4.3 7.0 0.00 0.00 0.00 17 1016.0
20260903050702 83 252 4.3 8.7 0.00 0.00 0.00 17 1016.0
20260903050200 78 255 1.7 1.7 0.00 0.00 0.00 19 1015.9
20260903045655 77 219 1.7 4.3 0.00 0.00 0.00 19 1016.1
20260903045152 79 170 0.9 2.6 0.00 0.00 0.00 19 1016.0
20260903044647 80 256 0.0 1.7 0.00 0.00 0.00 19 1016.1
20260903044137 80 186 0.0 1.7 0.00 0.00 0.00 20 1016.0
20260903043634 82 174 0.9 2.6 0.00 0.00 0.00 21 1016.1
20260903043132 82 13 0.0 1.7 0.00 0.00 0.00 21 1015.9
20260903042632 82 62 0.0 1.7 0.00 0.00 0.00 20 1015.9
20260903042127 81 165 1.7 1.7 0.00 0.00 0.00 20 1015.9
20260903041624 82 27 1.7 3.5 0.00 0.00 0.00 19 1015.8
20260903041120 82 89 3.5 3.5 0.00 0.00 0.00 18 1015.7
20260903040618 82 101 2.6 3.5 0.00 0.00 0.00 18 1015.8
20260903040115 83 83 1.7 2.6 0.00 0.00 0.00 16 1015.5
20260903035610 84 20 0.9 2.6 0.00 0.00 0.00 15 1015.6
20260903035106 85 15 1.7 1.7 0.00 0.00 0.00 15 1015.5
20260903034600 85 240 0.0 1.7 0.00 0.00 0.00 15 1015.4
20260903034055 86 57 0.9 1.7 0.00 0.00 0.00 14 1015.4
20260903033551 86 308 0.0 4.3 0.00 0.00 0.00 14 1015.3
20260903033046 86 14 0.9 3.5 0.00 0.00 0.00 15 1015.3
20260903032541 87 255 4.3 8.7 0.00 0.00 0.00 14 1015.2
20260903032036 86 335 0.0 5.2 0.00 0.00 0.00 15 1014.9
20260903031536 87 342 1.7 5.2 0.00 0.00 0.00 14 1014.9
20260903031031 87 307 4.3 6.1 0.00 0.00 0.00 15 1015.0
20260903030526 87 227 6.1 10.4 0.00 0.00 0.00 15 1014.9
20260903030023 87 268 2.6 10.4 0.00 0.00 0.00 15 1014.8
20260903025518 87 274 4.3 13.0 0.00 0.00 0.00 15 1014.7
20260903025014 87 266 3.5 7.0 0.00 0.00 0.00 15 1014.7
20260903024514 87 247 5.2 7.8 0.00 0.00 0.00 14 1014.6
20260903024013 87 272 4.3 6.1 0.00 0.00 0.00 14 1014.7
20260903023509 87 290 3.5 6.1 0.00 0.00 0.00 13 1014.5
20260903023004 88 218 3.5 5.2 0.00 0.00 0.00 14 1014.5
20260903022504 88 258 7.0 8.7 0.00 0.00 0.00 15 1014.4
20260903022002 88 215 0.9 6.1 0.00 0.00 0.00 13 1014.5
20260903021457 88 264 2.6 7.8 0.00 0.00 0.00 14 1014.6
20260903020952 88 255 2.6 4.3 0.00 0.00 0.00 15 1014.5
20260903020448 88 242 0.9 3.5 0.00 0.00 0.00 16 1014.4
20260903015942 88 248 0.9 2.6 0.00 0.00 0.00 17 1014.7
20260903015438 88 252 3.5 3.5 0.00 0.00 0.00 16 1014.6
20260903014933 89 194 0.9 4.3 0.00 0.00 0.00 15 1014.5
20260903014432 89 331 3.5 3.5 0.00 0.00 0.00 16 1014.4
20260903013927 89 281 2.6 10.4 0.00 0.00 0.00 16 1014.7
20260903013426 90 51 0.9 8.7 0.00 0.00 0.00 15 1014.7
20260903012920 90 245 5.2 7.0 0.00 0.00 0.00 16 1014.8
20260903012414 90 245 8.7 13.0 0.00 0.00 0.00 15 1014.7
20260903011914 90 258 6.1 7.8 0.00 0.00 0.00 17 1014.5
20260903011414 91 258 5.2 11.3 0.00 0.00 0.00 19 1014.6
20260903010909 91 272 5.2 11.3 0.00 0.00 0.00 18 1014.5
20260903010404 93 231 6.1 9.6 0.00 0.00 0.00 18 1014.5
20260903005902 93 255 10.4 12.2 0.00 0.00 0.00 18 1014.4
20260903005357 93 318 6.1 10.4 0.00 0.00 0.00 19 1014.5
20260903004854 94 293 4.3 12.2 0.00 0.00 0.00 18 1014.2
20260903004349 94 263 4.3 14.8 0.00 0.00 0.00 18 1014.2
20260903003844 95 253 8.7 10.4 0.00 0.00 0.00 18 1014.3
20260903003344 94 303 8.7 16.5 0.00 0.00 0.00 18 1014.2
20260903002844 95 314 5.2 12.2 0.00 0.00 0.00 18 1014.1
20260903002339 96 314 6.1 10.4 0.00 0.00 0.00 17 1014.3
20260903001833 96 309 7.8 10.4 0.00 0.00 0.00 17 1014.2
20260903001329 96 298 5.2 13.0 0.00 0.00 0.00 17 1014.1
20260903000829 96 262 4.3 10.4 0.00 0.00 0.00 17 1014.3
20260903000325 97 298 5.2 10.4 0.00 0.00 0.00 17 1014.2
20260902235822 97 297 7.8 11.3 0.00 0.00 0.00 17 1014.3
20260902235318 97 305 5.2 12.2 0.00 0.00 0.00 16 1014.2
20260902234817 98 292 5.2 7.0 0.00 0.00 0.00 15 1014.4
20260902234317 97 330 7.8 14.8 0.00 0.00 0.00 14 1014.2
20260902233816 98 255 5.2 5.2 0.00 0.00 0.00 13 1014.5
20260902233316 98 217 1.7 6.1 0.00 0.00 0.00 13 1014.3
20260902232815 99 301 1.7 6.1 0.00 0.00 0.00 13 1014.1
20260902232310 98 301 5.2 13.9 0.00 0.00 0.00 13 1014.5
20260902231809 99 255 6.1 11.3 0.00 0.00 0.00 13 1014.5
20260902231304 99 303 6.1 6.1 0.00 0.00 0.00 13 1014.6
20260902230759 98 147 1.7 6.1 0.00 0.00 0.00 13 1014.7
20260902230258 99 301 9.6 13.0 0.00 0.00 0.00 12 1014.7
20260902225753 98 330 7.8 13.9 0.00 0.00 0.00 13 1014.8
20260902225248 98 332 5.2 13.0 0.00 0.00 0.00 13 1014.8
20260902224746 100 296 6.1 9.6 0.00 0.00 0.00 13 1014.8
20260902224241 99 273 2.6 9.6 0.00 0.00 0.00 13 1014.9
20260902223738 99 321 6.1 7.8 0.00 0.00 0.00 12 1015.0
20260902223236 99 290 3.5 8.7 0.00 0.00 0.00 12 1014.6
20260902222730 99 302 6.1 12.2 0.00 0.00 0.00 13 1015.0
20260902222225 98 313 5.2 13.9 0.00 0.00 0.00 13 1015.0
20260902221720 99 248 6.1 12.2 0.00 0.00 0.00 12 1015.0
20260902221218 100 66 1.7 8.7 0.00 0.00 0.00 12 1015.0
20260902220714 99 297 7.0 9.6 0.00 0.00 0.00 12 1015.1
20260902220214 99 308 6.1 11.3 0.00 0.00 0.00 12 1015.2
20260902215710 99 295 5.2 15.6 0.00 0.00 0.00 11 1015.2
20260902215205 100 317 7.8 10.4 0.00 0.00 0.00 12 1015.2
20260902214700 99 283 4.3 12.2 0.00 0.00 0.00 12 1015.3
20260902214159 100 289 7.0 10.4 0.00 0.00 0.00 11 1015.3
20260902213655 100 284 7.8 9.6 0.00 0.00 0.00 12 1015.6
20260902213154 99 310 9.6 13.9 0.00 0.00 0.00 11 1015.3
20260902212649 101 268 5.2 7.8 0.00 0.00 0.00 12 1015.5
20260902212146 100 254 1.7 13.0 0.00 0.00 0.00 12 1015.5
20260902211642 99 247 9.6 14.8 0.00 0.00 0.00 12 1015.6
20260902211137 99 305 7.0 12.2 0.00 0.00 0.00 11 1015.5
20260902210636 99 273 5.2 7.8 0.00 0.00 0.00 11 1015.7
20260902210132 99 333 7.0 12.2 0.00 0.00 0.00 11 1015.7
20260902205630 100 249 7.8 12.2 0.00 0.00 0.00 9 1015.6
20260902205125 100 249 9.6 13.0 0.00 0.00 0.00 11 1015.7
20260902204620 98 254 6.1 14.8 0.00 0.00 0.00 10 1015.7
20260902204115 98 282 6.1 15.6 0.00 0.00 0.00 10 1016.0
20260902203610 99 240 14.8 21.7 0.00 0.00 0.00 9 1015.7
20260902203110 99 248 7.8 9.6 0.00 0.00 0.00 9 1015.9
20260902202605 99 263 5.2 6.1 0.00 0.00 0.00 9 1015.9
20260902202102 99 276 4.3 9.6 0.00 0.00 0.00 9 1016.0
20260902201557 99 266 2.6 13.9 0.00 0.00 0.00 9 1016.0
20260902201056 99 305 2.6 7.8 0.00 0.00 0.00 9 1015.9
20260902200551 98 247 5.2 9.6 0.00 0.00 0.00 9 1016.1
20260902200048 98 266 4.3 15.6 0.00 0.00 0.00 9 1016.3
20260902195543 98 265 6.1 9.6 0.00 0.00 0.00 9 1016.3
20260902195042 97 329 12.2 14.8 0.00 0.00 0.00 9 1016.3
20260902194541 98 301 7.0 11.3 0.00 0.00 0.00 9 1016.2
20260902194037 98 250 7.8 9.6 0.00 0.00 0.00 9 1016.5
20260902193533 98 266 4.3 11.3 0.00 0.00 0.00 9 1016.3
20260902193032 99 233 9.6 16.5 0.00 0.00 0.00 9 1016.7
20260902192531 98 326 3.5 8.7 0.00 0.00 0.00 9 1016.8
20260902192030 99 321 11.3 11.3 0.00 0.00 0.00 9 1016.7
20260902191526 99 264 5.2 12.2 0.00 0.00 0.00 9 1016.9
20260902191020 98 229 3.5 10.4 0.00 0.00 0.00 9 1016.8
20260902190516 97 262 7.8 12.2 0.00 0.00 0.00 9 1016.8
20260902190012 97 267 3.5 6.1 0.00 0.00 0.00 10 1017.1
20260902185508 97 288 11.3 15.6 0.00 0.00 0.00 9 1017.0
20260902185003 96 244 3.5 13.9 0.00 0.00 0.00 10 1017.2
20260902184458 98 257 6.1 9.6 0.00 0.00 0.00 9 1017.2
20260902183953 97 285 5.2 10.4 0.00 0.00 0.00 10 1017.2
20260902183449 96 311 8.7 13.0 0.00 0.00 0.00 10 1017.2
20260902182945 97 252 4.3 8.7 0.00 0.00 0.00 9 1017.3
20260902182441 97 281 3.5 7.8 0.00 0.00 0.00 9 1017.4
20260902181937 97 228 3.5 7.8 0.00 0.00 0.00 9 1017.4
20260902181432 97 242 4.3 7.8 0.00 0.00 0.00 10 1017.4
20260902180926 97 242 4.3 4.3 0.00 0.00 0.00 10 1017.5
20260902180422 97 276 2.6 2.6 0.00 0.00 0.00 10 1017.6
20260902175917 97 275 2.6 4.3 0.00 0.00 0.00 10 1017.5
20260902175412 96 163 0.0 1.7 0.00 0.00 0.00 10 1017.6
20260902174908 95 102 1.7 5.2 0.00 0.00 0.00 10 1017.6
20260902174405 96 235 0.0 1.7 0.00 0.00 0.00 10 1017.9
20260902173900 95 32 0.0 1.7 0.00 0.00 0.00 11 1017.6
20260902173359 95 107 3.5 3.5 0.00 0.00 0.00 11 1017.8
20260902172855 94 119 0.0 2.6 0.00 0.00 0.00 11 1017.7
20260902172354 95 75 0.0 3.5 0.00 0.00 0.00 11 1017.8
20260902171849 94 75 2.6 2.6 0.00 0.00 0.00 12 1017.7
20260902171344 93 83 2.6 6.1 0.00 0.00 0.00 12 1017.6
20260902170841 94 76 2.6 2.6 0.00 0.00 0.00 12 1017.8
20260902170336 94 100 3.5 4.3 0.00 0.00 0.00 12 1017.6
20260902165831 93 81 1.7 2.6 0.00 0.00 0.00 12 1017.6
20260902165330 93 16 1.7 2.6 0.00 0.00 0.00 13 1017.5
20260902164825 92 130 0.0 2.6 0.00 0.00 0.00 13 1017.7
20260902164321 92 127 0.9 2.6 0.00 0.00 0.00 13 1017.6
20260902163820 92 105 0.0 1.7 0.00 0.00 0.00 13 1018.0
20260902163320 92 148 1.7 2.6 0.00 0.00 0.00 13 1017.7
20260902162818 92 110 0.9 2.6 0.00 0.00 0.00 14 1017.7
20260902162313 91 119 0.9 2.6 0.00 0.00 0.00 14 1017.7
20260902161808 91 68 0.9 1.7 0.00 0.00 0.00 14 1017.7
20260902161304 90 225 0.0 1.7 0.00 0.00 0.00 14 1017.8
20260902160800 90 71 0.0 1.7 0.00 0.00 0.00 14 1017.8
20260902160255 90 131 0.0 1.7 0.00 0.00 0.00 15 1017.9
20260902155753 91 117 0.0 0.9 0.00 0.00 0.00 14 1017.6
20260902155252 89 350 0.9 1.7 0.00 0.00 0.00 15 1017.9
20260902154747 90 34 1.7 1.7 0.00 0.00 0.00 15 1017.7
20260902154243 90 41 0.0 1.7 0.00 0.00 0.00 15 1017.6
20260902153735 90 59 1.7 1.7 0.00 0.00 0.00 15 1017.5
20260902153236 89 232 0.0 1.7 0.00 0.00 0.00 15 1017.5
20260902152732 87 265 0.0 1.7 0.00 0.00 0.00 16 1017.7
20260902152227 87 296 0.0 0.9 0.00 0.00 0.00 16 1017.5
20260902151723 87 282 0.0 1.7 0.00 0.00 0.00 16 1017.5
20260902151223 88 356 1.7 1.7 0.00 0.00 0.00 16 1017.6
20260902150723 89 79 0.0 1.7 0.00 0.00 0.00 15 1017.5
20260902150219 89 84 0.9 1.7 0.00 0.00 0.00 16 1017.6
20260902145718 87 37 0.9 1.7 0.00 0.00 0.00 18 1017.6
20260902145213 87 15 0.0 0.9 0.00 0.00 0.00 19 1017.6
20260902144709 84 6 0.0 1.7 0.00 0.00 0.00 20 1017.7
20260902144205 84 343 1.7 1.7 0.00 0.00 0.00 19 1017.5
20260902143700 83 1 0.9 1.7 0.00 0.00 0.00 22 1017.5
20260902143155 84 318 0.0 0.9 0.00 0.00 0.00 19 1017.3
20260902142651 81 124 0.0 0.9 0.00 0.00 0.00 20 1017.3
20260902142147 79 201 0.0 1.7 0.00 0.00 0.00 20 1017.5
20260902141646 78 274 0.0 1.7 0.00 0.00 0.00 21 1017.6
20260902141142 76 268 0.9 1.7 0.00 0.00 0.00 22 1017.4
20260902140637 75 226 0.9 1.7 0.00 0.00 0.00 23 1017.3
20260902140132 74 168 0.9 1.7 0.00 0.00 0.00 23 1017.2
20260902135631 73 249 1.7 1.7 0.00 0.00 0.00 23 1017.3
20260902135126 72 190 0.9 1.7 0.00 0.00 0.00 24 1016.9
20260902134622 72 274 1.7 2.6 0.00 0.00 0.00 24 1017.2
20260902134121 72 142 0.9 1.7 0.00 0.00 0.00 24 1016.9
20260902133621 72 322 0.0 1.7 0.00 0.00 0.00 24 1017.0
20260902133116 73 220 0.0 1.7 0.00 0.00 0.00 24 1016.9
20260902132612 73 141 0.0 1.7 0.00 0.00 0.00 24 1017.0
20260902132107 71 251 0.0 1.7 0.00 0.00 0.00 24 1016.9
20260902131603 73 128 0.0 1.7 0.00 0.00 0.00 23 1016.9
20260902131058 72 228 0.0 1.7 0.00 0.00 0.00 24 1016.8
20260902130554 70 183 0.9 1.7 0.00 0.00 0.00 25 1016.7
20260902130049 72 234 1.7 1.7 0.00 0.00 0.00 24 1016.8
20260902125544 72 174 0.0 1.7 0.00 0.00 0.00 24 1016.9
20260902125040 72 212 0.0 0.9 0.00 0.00 0.00 24 1016.8
20260902124536 72 225 0.9 1.7 0.00 0.00 0.00 23 1016.7
20260902124031 73 201 0.0 1.7 0.00 0.00 0.00 23 1016.6
20260902123526 73 238 0.9 0.9 0.00 0.00 0.00 23 1016.7
20260902123021 71 236 1.7 1.7 0.00 0.00 0.00 24 1016.8
20260902122520 73 231 1.7 3.5 0.00 0.00 0.00 23 1016.6
20260902122015 73 237 3.5 3.5 0.00 0.00 0.00 23 1016.8
20260902121510 73 225 1.7 2.6 0.00 0.00 0.00 23 1016.6
20260902121005 73 108 0.0 1.7 0.00 0.00 0.00 23 1016.6
20260902120502 73 235 2.6 2.6 0.00 0.00 0.00 22 1016.8
20260902120002 73 200 2.6 3.5 0.00 0.00 0.00 22 1016.6
20260902115457 74 218 2.6 3.5 0.00 0.00 0.00 22 1016.6
20260902114954 75 222 0.9 1.7 0.00 0.00 0.00 22 1016.3
20260902114449 74 201 0.0 1.7 0.00 0.00 0.00 22 1016.5
20260902113944 75 249 0.9 3.5 0.00 0.00 0.00 21 1016.5
20260902113440 75 219 1.7 3.5 0.00 0.00 0.00 21 1016.5
20260902112939 73 240 3.5 3.5 0.00 0.00 0.00 22 1016.6
20260902112436 75 191 0.9 1.7 0.00 0.00 0.00 21 1016.3
20260902111931 75 253 0.0 1.7 0.00 0.00 0.00 21 1016.6
20260902111427 75 219 0.0 1.7 0.00 0.00 0.00 21 1016.8
20260902110923 75 234 0.9 2.6 0.00 0.00 0.00 21 1016.7
20260902110420 74 242 0.0 2.6 0.00 0.00 0.00 21 1016.7
20260902105919 75 241 2.6 3.5 0.00 0.00 0.00 21 1016.5
20260902105414 75 205 1.7 1.7 0.00 0.00 0.00 21 1016.5
20260902104910 75 283 0.0 1.7 0.00 0.00 0.00 21 1016.7
20260902104406 75 77 0.0 1.7 0.00 0.00 0.00 20 1016.9
20260902103905 73 159 1.7 1.7 0.00 0.00 0.00 21 1016.6
20260902103400 74 180 0.0 1.7 0.00 0.00 0.00 21 1016.6
20260902102854 75 117 0.0 1.7 0.00 0.00 0.00 20 1016.7
20260902102353 73 226 2.6 3.5 0.00 0.00 0.00 20 1016.8
20260902101848 73 327 0.0 1.7 0.00 0.00 0.00 21 1016.8
20260902101343 74 240 1.7 3.5 0.00 0.00 0.00 20 1017.0
20260902100842 75 245 1.7 1.7 0.00 0.00 0.00 19 1016.9
20260902100337 74 10 0.9 0.9 0.00 0.00 0.00 20 1017.0
20260902095832 73 282 1.7 2.6 0.00 0.00 0.00 20 1017.0
20260902095331 73 267 0.9 1.7 0.00 0.00 0.00 20 1017.0
20260902094831 75 33 0.0 1.7 0.00 0.00 0.00 20 1017.0
20260902094328 75 117 0.0 0.9 0.00 0.00 0.00 19 1016.9
20260902093827 75 207 0.0 2.6 0.00 0.00 0.00 20 1017.0
20260902093322 73 218 0.0 1.7 0.00 0.00 0.00 20 1017.1
20260902092821 74 224 0.0 1.7 0.00 0.00 0.00 20 1016.9
20260902092317 74 141 0.0 1.7 0.00 0.00 0.00 20 1016.8
20260902091811 74 244 0.9 2.6 0.00 0.00 0.00 20 1017.1
20260902091307 75 262 1.7 2.6 0.00 0.00 0.00 19 1017.0
20260902090804 76 249 0.9 1.7 0.00 0.00 0.00 18 1017.1
20260902090302 76 337 2.6 2.6 0.00 0.00 0.00 18 1017.3
20260902085802 77 245 0.9 4.3 0.00 0.00 0.00 18 1017.3
20260902085257 76 251 2.6 5.2 0.00 0.00 0.00 18 1017.3
20260902084753 75 219 1.7 2.6 0.00 0.00 0.00 19 1017.3
20260902084248 75 292 1.7 2.6 0.00 0.00 0.00 19 1017.5
20260902083744 75 332 1.7 2.6 0.00 0.00 0.00 19 1017.3
20260902083238 77 249 0.9 3.5 0.00 0.00 0.00 18 1017.5
20260902082733 78 62 1.7 2.6 0.00 0.00 0.00 19 1017.6
20260902082230 80 299 4.3 7.8 0.00 0.00 0.00 16 1017.4
20260902081726 81 337 1.7 7.0 0.00 0.00 0.00 17 1017.5
20260902081221 80 331 4.3 4.3 0.00 0.00 0.00 16 1017.5
20260902080715 81 339 2.6 6.1 0.00 0.00 0.00 16 1017.2
20260902080207 80 12 5.2 7.8 0.00 0.00 0.00 17 1017.2
20260902075706 80 20 1.7 7.8 0.00 0.00 0.00 17 1017.4
20260902075202 80 350 3.5 5.2 0.00 0.00 0.00 17 1017.3
20260902074657 80 18 5.2 7.0 0.00 0.00 0.00 17 1017.3
20260902074152 80 16 2.6 5.2 0.00 0.00 0.00 17 1017.3
20260902073647 80 358 2.6 5.2 0.00 0.00 0.00 17 1017.4
20260902073144 80 359 2.6 5.2 0.00 0.00 0.00 17 1017.3
20260902072639 80 299 0.0 4.3 0.00 0.00 0.00 18 1017.2
20260902072135 79 355 1.7 2.6 0.00 0.00 0.00 18 1017.4
20260902071630 78 31 0.9 4.3 0.00 0.00 0.00 19 1017.3
20260902071126 76 86 0.0 1.7 0.00 0.00 0.00 22 1017.4
20260902070621 76 274 1.7 1.7 0.00 0.00 0.00 22 1017.3
20260902070116 77 18 1.7 1.7 0.00 0.00 0.00 21 1017.1
20260902065615 78 229 0.0 0.9 0.00 0.00 0.00 21 1017.2